Weather History for KLHQ - May, 2014

Change the Weather History Date:

Friday, May 9, 2014

  Actual Average Record
Temperature  
Mean Temperature 68 °F -  
Max Temperature 78 °F 69 °F 90 °F (1936)
Min Temperature 59 °F 45 °F 27 °F (1947)
Cooling Degree Days 4    
Growing Degree Days 18 (Base 50)    
Moisture  
Dew Point 59 °F    
Average Humidity 74    
Maximum Humidity 90    
Minimum Humidity 50    
Precipitation  
Precipitation 0.27 in - - ()
Sea Level Pressure  
Sea Level Pressure 29.93 in    
Wind  
Wind Speed 8 mph (SSW)    
Max Wind Speed 16 mph    
Max Gust Speed 29 mph    
Visibility 8 miles    
Events Rain    
Averages and records for this station are not official NWS values.
T = Trace of Precipitation, MM = Missing Value Source: NWS Daily Summary

Daily Weather History Graph

Daily Weather History Graph

Search for Another Location

Airport or City:

Trip Planner

Search our weather history database for the weather conditions in past years. The results will help you decide how hot, cold, wet, or windy it might be!

Date:

Astronomy

May. 09, 2014 Rise Set
Actual Time 6:21 AM EDT 8:32 PM EDT
Civil Twilight 5:52 AM EDT 9:02 PM EDT
Nautical Twilight 5:15 AM EDT 9:39 PM EDT
Astronomical Twilight 4:35 AM EDT 10:19 PM EDT
Moon 3:29 PM EDT (5/9) 3:22 AM EDT (5/9)
Length of Visible Light 15h 10m
Length of Day
14h 10m
Waxing Gibbous, 73% of the Moon is Illuminated
May 9
Waxing Gibbous
May 14
Full
May 21
Last Quarter
May 28
New
Jun 5
First Quarter

Hourly Weather History & Observations

Time (EDT) Temp. Dew Point Humidity Pressure Visibility Wind Dir Wind Speed Gust Speed Precip Events Conditions
12:53 AM 62.1 °F 54.0 °F 75% 30.02 in 10.0 mi SSE 3.5 mph - N/A   Clear
1:53 AM 60.1 °F 54.0 °F 80% 30.01 in 10.0 mi Calm Calm - N/A   Clear
2:53 AM 59.0 °F 54.0 °F 83% 29.99 in 10.0 mi SE 3.5 mph - N/A   Clear
3:53 AM 61.0 °F 54.0 °F 78% 29.99 in 10.0 mi SE 4.6 mph - N/A   Clear
5:53 AM 61.0 °F 52.0 °F 72% 29.97 in 10.0 mi SE 6.9 mph - N/A   Clear
6:53 AM 63.0 °F 53.1 °F 70% 29.98 in 10.0 mi SE 6.9 mph - N/A   Scattered Clouds
8:53 AM 72.0 °F 55.9 °F 57% 29.98 in 10.0 mi South 9.2 mph - N/A   Partly Cloudy
9:53 AM 73.9 °F 57.0 °F 55% 29.97 in 10.0 mi South 12.7 mph - N/A   Partly Cloudy
10:53 AM 78.1 °F 57.9 °F 50% 29.96 in 10.0 mi SSW 15.0 mph 24.2 mph N/A   Scattered Clouds
11:53 AM 77.0 °F 57.9 °F 52% 29.95 in 10.0 mi SW 16.1 mph 28.8 mph N/A   Mostly Cloudy
12:27 PM 71.1 °F 63.0 °F 75% 29.97 in 2.5 mi SSW 11.5 mph 23.0 mph 0.04 in Rain Light Rain
12:34 PM 72.0 °F 64.0 °F 76% 29.96 in 10.0 mi SSW 11.5 mph - 0.05 in Rain Light Rain
12:53 PM 73.0 °F 63.0 °F 71% 29.95 in 10.0 mi SSW 10.4 mph - 0.05 in   Mostly Cloudy
1:53 PM 77.0 °F 59.0 °F 54% 29.92 in 10.0 mi SSW 15.0 mph 26.5 mph N/A   Clear
2:53 PM 75.9 °F 57.9 °F 54% 29.90 in 10.0 mi SW 16.1 mph 27.6 mph N/A   Mostly Cloudy
3:53 PM 75.9 °F 57.9 °F 54% 29.87 in 10.0 mi SSW 13.8 mph 19.6 mph N/A   Mostly Cloudy
4:53 PM 75.0 °F 57.0 °F 53% 29.87 in 10.0 mi SSW 15.0 mph 28.8 mph N/A   Overcast
5:53 PM 71.1 °F 61.0 °F 70% 29.87 in 10.0 mi WSW 5.8 mph - 0.01 in   Overcast
6:25 PM 66.9 °F 63.0 °F 87% 29.90 in 2.0 mi SW 11.5 mph - 0.06 in Rain Rain
6:31 PM 66.0 °F 63.0 °F 90% 29.90 in 1.0 mi SSW 12.7 mph 21.9 mph 0.11 in Rain Heavy Rain
6:42 PM 66.0 °F 63.0 °F 90% 29.90 in 0.8 mi SSW 11.5 mph - 0.21 in Rain Heavy Rain
6:47 PM 66.2 °F 62.6 °F 88% 29.90 in 1.2 mi SSW 11.5 mph - 0.21 in Rain Light Rain
6:51 PM 66.2 °F 62.6 °F 88% 29.89 in 3.0 mi SSW 10.4 mph - 0.21 in Rain Light Rain
6:53 PM 66.0 °F 63.0 °F 90% 29.88 in 6.0 mi SSW 8.1 mph - 0.21 in Rain Light Rain
7:09 PM 66.9 °F 63.0 °F 87% 29.89 in 10.0 mi SSW 10.4 mph - 0.00 in   Overcast
7:53 PM 66.9 °F 63.0 °F 87% 29.88 in 10.0 mi SSW 8.1 mph - 0.00 in   Clear
8:53 PM 66.0 °F 61.0 °F 84% 29.88 in 10.0 mi SSW 9.2 mph - N/A   Clear
9:53 PM 66.9 °F 61.0 °F 81% 29.89 in 10.0 mi SSW 9.2 mph - N/A   Clear
11:53 PM 66.0 °F 61.0 °F 84% 29.91 in 10.0 mi SSW 8.1 mph - N/A   Clear